Vorticity
13 13 12 1 3 0 15 11 12 8 10 13 18 17 19 12 11 10 11 10 23 27
10 7 8 2 4 14 12 11 8 10 13 15 12 17 14 10 8 4 11 10 19 20
10 3 6 -2 14 17 10 9 10 11 13 12 13 15 13 13 6 3 9 7 10 25
4 8 -1 14 17 7 9 10 10 11 9 13 15 14 13 9 6 1 9 5 2 22
2 10 22 11 8 10 11 11 10 8 10 14 19 13 15 7 7 2 10 6 9 5
13 17 9 9 11 11 10 8 9 10 10 17 17 15 15 4 8 4 5 11 3 5
18 13 8 9 10 12 9 6 11 11 8 18 15 17 16 3 6 -5 6 6 11 7
6 10 7 9 10 9 7 7 9 10 10 19 15 12 19 7 4 -1 7 5 4 11
9 6 8 8 9 9 6 6 8 12 13 17 14 9 19 6 4 -0 8 7 7 2
7 8 8 9 9 6 7 5 14 12 13 17 12 9 15 13 5 3 6 6 2 8
6 8 10 8 8 8 6 11 11 14 14 16 13 7 6 8 10 14 4 3 12 3
11 10 6 7 6 8 8 10 18 14 8 14 16 10 8 8 7 6 7 6 4 12
7 5 4 9 5 11 12 24 20 7 2 3 4 11 13 10 8 8 9 7 9 7
5 4 9 7 9 19 17 13 10 6 6 10 14 16 12 11 10 6 8 10 7 6
Height
5681 5678 5675 5672 5668 5664 5659 5653 5648 5642 5636 5629 5622 5616 5610 5605 5599 5592 5585 5576 5568 5561
5670 5667 5664 5661 5658 5654 5649 5644 5638 5632 5626 5619 5613 5608 5603 5598 5593 5587 5580 5572 5563 5556
5660 5657 5654 5651 5648 5644 5640 5634 5628 5623 5616 5610 5605 5601 5596 5592 5587 5582 5576 5568 5560 5551
5649 5647 5644 5642 5639 5635 5630 5624 5619 5613 5607 5603 5598 5593 5589 5586 5582 5577 5571 5565 5558 5550
5640 5638 5635 5632 5629 5624 5620 5615 5610 5604 5599 5595 5590 5586 5583 5580 5576 5572 5567 5562 5556 5549
5631 5627 5625 5622 5618 5615 5610 5605 5600 5595 5592 5587 5582 5579 5576 5574 5571 5568 5564 5560 5554 5548
5620 5618 5615 5612 5608 5605 5601 5596 5592 5588 5583 5579 5575 5571 5569 5568 5566 5563 5560 5556 5551 5547
5611 5608 5605 5602 5599 5596 5592 5587 5583 5580 5576 5571 5568 5565 5562 5561 5560 5558 5556 5552 5549 5545
5601 5599 5596 5593 5590 5587 5583 5579 5576 5572 5567 5564 5561 5558 5556 5555 5554 5552 5551 5548 5545 5542
5592 5590 5587 5585 5582 5578 5575 5571 5567 5563 5560 5556 5554 5552 5550 5548 5547 5546 5544 5542 5540 5538
5583 5581 5579 5576 5573 5570 5567 5563 5559 5556 5552 5549 5547 5546 5544 5542 5540 5539 5537 5536 5534 5533
5574 5573 5570 5567 5564 5561 5558 5554 5551 5548 5545 5543 5540 5539 5537 5535 5533 5532 5530 5528 5527 5525
5565 5563 5561 5558 5555 5552 5548 5545 5542 5541 5539 5536 5534 5531 5529 5528 5526 5524 5522 5521 5519 5517
5556 5554 5551 5549 5546 5543 5540 5537 5535 5533 5531 5528 5525 5522 5520 5519 5517 5515 5514 5512 5510 5508